EST,Max TemperatureF,Mean TemperatureF,Min TemperatureF,Max Dew PointF,MeanDew PointF,Min DewpointF,Max Humidity, Mean Humidity, Min Humidity, Max Sea Level PressureIn, Mean Sea Level PressureIn, Min Sea Level PressureIn, Max VisibilityMiles, Mean VisibilityMiles, Min VisibilityMiles, Max Wind SpeedMPH, Mean Wind SpeedMPH, Max Gust SpeedMPH,PrecipitationIn, CloudCover, Events, WindDirDegrees
2013-1-1,75,66,57,60,58,55,97,77,54,30.21,30.12,30.04,10,9,2,16,4,,0.00,3,,194
2013-1-2,75,68,62,67,64,61,100,93,73,30.07,30.04,30.00,10,6,0,12,5,,0.00,3,Fog,209
2013-1-3,72,66,61,67,64,59,100,95,81,30.16,30.08,30.03,10,3,0,17,6,,0.31,8,Fog-Rain,43
2013-1-4,63,61,59,60,58,56,97,91,84,30.27,30.20,30.15,10,8,2,16,12,,0.05,8,Rain,44
2013-1-5,73,66,59,62,58,52,93,79,63,30.29,30.23,30.18,10,9,3,17,12,,0.00,7,,50
2013-1-6,77,70,63,68,64,62,100,90,74,30.18,30.13,30.07,10,7,0,13,6,,0.03,5,Fog-Rain,54
2013-1-7,66,64,62,65,60,56,96,87,78,30.21,30.15,30.11,10,8,2,22,11,,0.09,7,Rain,61
2013-1-8,78,71,64,68,64,61,90,82,64,30.22,30.15,30.12,10,10,8,10,8,,0.00,2,,67
2013-1-9,79,74,68,68,67,65,96,86,66,30.28,30.22,30.16,10,8,5,10,5,,0.00,3,,78
2013-1-10,78,74,69,68,67,64,96,84,66,30.28,30.25,30.20,10,8,5,13,8,,0.00,2,,102
2013-1-11,79,72,66,67,65,60,90,77,58,30.25,30.19,30.13,10,10,9,10,4,,0.00,2,,141
2013-1-12,80,74,68,68,66,65,93,81,60,30.18,30.12,30.08,10,10,10,10,5,,0.00,2,,128
2013-1-13,78,73,68,68,65,64,90,80,62,30.16,30.09,30.06,10,10,10,12,6,,0.00,0,,149
2013-1-14,78,73,68,66,63,56,87,75,46,30.18,30.14,30.12,10,10,9,10,6,,0.00,2,,172
2013-1-15,80,73,66,68,65,61,90,79,56,30.14,30.09,30.06,10,10,10,13,6,,0.00,1,,169
2013-1-16,80,73,66,66,64,59,93,78,50,30.11,30.04,30.01,10,10,10,9,5,,0.00,0,,196
2013-1-17,73,65,57,69,60,46,97,84,60,30.15,30.06,30.00,10,7,2,18,9,30,0.03,7,Rain,300
2013-1-18,64,56,48,57,49,40,80,73,64,30.31,30.25,30.15,10,10,10,25,15,32,0.00,7,,43
2013-1-19,72,64,57,63,57,50,81,76,70,30.27,30.20,30.12,10,10,9,16,13,,0.00,6,Rain,59
2013-1-20,75,68,62,63,60,57,90,77,64,30.18,30.11,30.04,10,10,8,15,8,,0.00,7,,53
2013-1-21,72,68,63,62,58,53,81,73,66,30.10,30.06,30.02,10,10,10,12,6,,0.00,4,Rain,25
2013-1-22,66,62,59,53,44,38,72,51,37,30.28,30.19,30.08,10,10,10,18,11,,0.00,0,,36
2013-1-23,69,62,54,47,42,38,67,51,32,30.37,30.31,30.27,10,10,10,15,9,,0.00,0,,31
2013-1-24,71,63,55,56,50,46,83,65,42,30.34,30.29,30.25,10,10,10,14,7,,0.00,0,,21
2013-1-25,72,64,57,57,54,46,93,73,44,30.32,30.26,30.19,10,9,3,8,6,,0.00,0,,23
2013-1-26,73,65,57,58,56,53,90,75,53,30.29,30.23,30.18,10,9,3,12,6,,0.00,0,,18
2013-1-27,75,68,62,61,59,56,90,76,53,30.31,30.26,30.21,10,9,5,12,6,,0.00,0,,76
2013-1-28,81,72,64,65,63,59,93,79,47,30.32,30.26,30.20,10,9,6,13,8,,0.00,3,,91
2013-1-29,81,72,64,67,65,63,100,86,56,30.23,30.18,30.09,10,7,0,13,7,,0.00,4,Fog,142
2013-1-30,79,72,66,67,65,64,93,80,62,30.08,29.98,29.91,10,10,10,25,14,34,0.00,0,,188
2013-1-31,70,62,55,65,49,34,93,68,39,30.23,30.09,29.95,10,9,4,18,12,34,0.08,4,Rain,349